Location: Lucerne Valley
(34.4439°N, 116.9669°E)
Time: 04:10:26
(UTC-07:00)

Vanguard 2 - All Passes

Search period start: 19 October 2017 00:00
Search period end: 29 October 2017 00:00
Orbit: 554 x 2939 km, 32.9° (Epoch: 18 October)

Date Brightness Start Highest point End Pass type
(mag) Time Alt. Az. Time Alt. Az. Time Alt. Az.
19 Oct - 00:06:20 10° WSW 00:09:32 16° SW 00:12:15 10° S daylight
19 Oct - 13:30:04 10° S 13:38:42 16° SE 13:46:28 10° ESE visible
19 Oct - 15:35:05 10° SSW 15:50:01 40° SSE 16:00:40 10° E daylight
19 Oct - 17:46:26 10° WSW 18:01:02 68° SSE 18:09:49 10° E daylight
19 Oct - 19:59:53 10° W 20:11:12 82° S 20:17:43 10° E daylight
19 Oct - 22:12:34 10° W 22:20:02 49° SSW 22:24:48 10° SE daylight
20 Oct - 13:44:58 10° S 13:56:54 22° SE 14:07:09 10° E visible
20 Oct - 15:52:29 10° SW 16:08:17 49° SSE 16:19:11 10° E daylight
20 Oct - 18:04:46 10° WSW 18:19:20 76° S 18:27:58 10° E daylight
20 Oct - 20:18:26 10° W 20:29:26 79° S 20:35:47 10° ESE daylight
20 Oct - 22:31:07 10° W 22:37:55 36° SSW 22:42:30 10° SE daylight
21 Oct - 14:01:02 10° SSW 14:15:04 30° SE 14:26:42 10° E visible
21 Oct - 16:10:12 10° SW 16:26:34 58° SSE 16:37:33 10° E daylight
21 Oct - 18:23:14 10° WSW 18:37:39 81° S 18:46:08 10° E daylight
21 Oct - 20:36:57 10° W 20:47:37 72° SSW 20:53:50 10° ESE daylight
21 Oct - 22:49:51 10° W 22:55:42 26° SW 22:59:53 10° SSE daylight
22 Oct - 12:15:16 10° SSE 12:22:00 13° SE 12:28:32 10° ESE visible
22 Oct - 14:17:45 10° SSW 14:33:15 38° SSE 14:45:41 10° E visible
22 Oct - 16:28:12 10° WSW 16:44:52 67° SSE 16:55:48 10° E daylight
22 Oct - 18:41:48 10° W 18:55:59 83° S 19:04:16 10° E daylight
22 Oct - 20:55:29 10° W 21:05:44 62° SSW 21:11:47 10° ESE daylight
22 Oct - 23:08:58 10° W 23:13:21 18° SW 23:16:47 10° S daylight
23 Oct - 12:29:07 10° S 12:40:03 20° SE 12:50:24 10° E visible
23 Oct - 14:34:56 10° SW 14:51:25 47° SSE 15:04:21 10° E visible
23 Oct - 16:46:27 10° WSW 17:03:12 74° SSE 17:14:01 10° E daylight
23 Oct - 19:00:23 10° W 19:14:18 82° S 19:22:23 10° E daylight
23 Oct - 21:14:02 10° W 21:23:43 50° SSW 21:29:36 10° SE daylight
23 Oct - 23:29:35 10° WSW 23:30:55 11° SW 23:32:08 10° SW daylight
24 Oct - 12:44:45 10° S 12:58:04 27° SE 13:10:28 10° E visible
24 Oct - 14:52:29 10° SW 15:09:39 56° SSE 15:22:48 10° E visible
24 Oct - 17:04:51 10° WSW 17:21:34 80° S 17:32:13 10° E daylight
24 Oct - 19:18:58 10° W 19:32:35 78° S 19:40:29 10° ESE daylight
24 Oct - 21:32:40 10° W 21:41:34 38° SSW 21:47:12 10° SE daylight
25 Oct - 13:01:12 10° SSW 13:16:05 35° SE 13:29:46 10° E visible
25 Oct - 15:10:20 10° SW 15:27:56 64° SSE 15:41:09 10° E daylight
25 Oct - 17:23:22 10° W 17:39:58 83° S 17:50:24 10° E daylight
25 Oct - 19:37:33 10° W 19:50:48 71° SSW 19:58:31 10° ESE daylight
25 Oct - 21:51:29 10° W 21:59:17 28° SW 22:04:31 10° SSE daylight
26 Oct - 11:14:41 10° SSE 11:23:14 16° SE 11:31:59 10° ESE visible
26 Oct - 13:18:09 10° SSW 13:34:07 43° SSE 13:48:38 10° E visible
26 Oct - 15:28:25 10° WSW 15:46:16 72° SSE 15:59:26 10° E daylight
26 Oct - 17:41:56 10° W 17:58:22 84° S 18:08:35 10° E daylight
26 Oct - 19:56:08 10° W 20:08:54 62° SSW 20:16:25 10° SE daylight
26 Oct - 22:10:41 10° W 22:16:50 20° SW 22:21:22 10° S daylight
27 Oct - 11:29:33 10° S 11:41:03 23° SE 11:52:59 10° E visible
27 Oct - 13:35:30 10° SW 13:52:14 52° SSE 14:07:15 10° E visible
27 Oct - 15:46:41 10° WSW 16:04:39 78° SSE 16:17:41 10° E daylight
27 Oct - 18:00:33 10° W 18:16:44 82° S 18:26:44 10° ESE daylight
27 Oct - 20:14:44 10° W 20:26:52 51° SSW 20:34:11 10° SE daylight
27 Oct - 22:30:54 10° WSW 22:34:18 13° SW 22:37:11 10° SSW daylight
28 Oct - 11:45:36 10° SSW 11:58:52 30° SE 12:12:45 10° E visible
28 Oct - 13:53:09 10° SW 14:10:25 61° SSE 14:25:42 10° E visible
28 Oct - 16:05:06 10° WSW 16:23:06 83° S 16:35:57 10° E daylight
28 Oct - 18:19:09 10° W 18:35:04 78° SSW 18:44:50 10° ESE daylight
28 Oct - 20:33:26 10° W 20:44:41 40° SW 20:51:43 10° SSE daylight
